Regional Weather Roundup
Issued by NWS State College, PA

Home | Current Version | Previous Version | Text Only | Print | Product List | Glossary Off
Versions: 1 2 3 4 5 6 7 8 9 10 11 12 13 14 15 16 17 18 19 20 21 22 23 24 25 26 27 28 29 30 31 32 33 34 35 36 37 38 39 40 41 42 43 44 45 46 47 48 49 50

000
ASUS41 KCTP 282103
RWRCTP

REGIONAL WEATHER ROUNDUP
NATIONAL WEATHER SERVICE STATE COLLEGE PA
500 PM EDT THU JUL 28 2016

Note: "fair" indicates few or no clouds below 12,000 feet with no
significant weather and/or obstructions to visibility.

* = STATION THAT DOES NOT REPORT PRECIPITATION /E.G. RAIN...SNOW...ETC/
    THUNDER OR FOG.

PAZ002>004-007>009-013>016-020>023-029>032-282200-
WESTERN PENNSYLVANIA

CITY           SKY/WX    TMP DP  RH WIND       PRES   REMARKS
ERIE           CLOUDY    81  67  62 NE9       29.87F
MEADVILLE      CLOUDY    66  64  93 E7        29.91F
FRANKLIN*      CLOUDY    70  63  78 SE7       29.92F
NEW CASTLE     FAIR      76  68  76 VRB3      29.90F
BEAVER COUNTY  CLOUDY    73  68  83 CALM      29.91F
BUTLER*        CLOUDY    73  68  83 W3        29.94S
PITTSBURGH INT CLOUDY    72  66  81 S5        29.91S
PITTSBURGH     CLOUDY    72  68  87 S5        29.90F
INDIANA*       NOT AVBL
LATROBE        LGT RAIN  73  73 100 W3        29.93F FOG
WASHINGTON CO* CLOUDY    70  66  88 E3        29.91F
$$

PAZ004>006-010>012-017>019-024>028-033>037-041-042-045-046-049>053-282200-
CENTRAL PENNSYLVANIA

CITY           SKY/WX    TMP DP  RH WIND       PRES   REMARKS
BRADFORD       CLOUDY    78  64  61 CALM      29.94F
DUBOIS         PTSUNNY   73  69  87 VRB5      29.92F FOG
CLEARFIELD     LGT RAIN  74  69  85 S6        29.92F
JOHNSTOWN      LGT RAIN  69  64  84 W3        29.96S
ALTOONA        LGT RAIN  72  68  87 N3        29.93F
STATE COLLEGE  DRIZZLE   75  66  73 SW6       29.92F
WILLIAMSPORT   MOSUNNY   87  65  47 SE3       29.84S
SELINSGROVE    CLOUDY    84  74  71 CALM      29.86S
FT INDIANTOWN  NOT AVBL
CAPITAL CITY   CLOUDY    82  69  64 SW6       29.86R
HARRISBURG     CLOUDY    80  71  74 CALM      29.85S
YORK           PTSUNNY   79  69  71 VRB3      29.87F
$$

PAZ038>040-043-044-047-048-054-055-060>062-067>071-282200-
EASTERN PENNSYLVANIA

CITY           SKY/WX    TMP DP  RH WIND       PRES   REMARKS
SCRANTON       CLOUDY    88  64  44 SW6       29.86S
MOUNT POCONO   MOSUNNY   80  65  59 SW17G23   29.94R
ALLENTOWN      RAIN      75  72  88 CALM      29.90R
QUAKERTOWN*    CLOUDY    77  73  88 SW5       29.92R
READING        LGT RAIN  72  67  84 E13G24    29.89R
LANCASTER      LGT RAIN  72  71  97 E10       29.89R
COATESVILLE    LGT RAIN  73  72  94 SE3       29.93R
POTTSTOWN      LGT RAIN  74  73  97 S5        29.93R FOG
BLUE BELL      CLOUDY    73  72  94 S5        29.90R
DOYLESTOWN     LGT RAIN  74  74 100 S8        29.90R
WILLOW GROVE   NOT AVBL
NORTH PHILA    LGT RAIN  78  74  87 VRB5      29.92R
PHILADELPHIA   LGT RAIN  75  72  90 S10       29.91R
$$




USA.gov is the U.S. government's official web portal to all federal, state and local government web resources and services.